Powrót do katalogu

DELTA 1 DEB

AktywnySSO
NORAD 21388·DEBRIS·🇺🇸 United States

Wystrzelony Jun 12, 1975 z Vandenberg Space Force Base

Loading…

Następne Przeloty (najbliższe 24 godziny)

TLE

ŚwieżeSource: Space-Track

Epoka: Sep 14, 2026, 21:50 UTC

1 21388U 75052DJ  26257.90989883  .00000059  00000-0  15464-3 0  9994
2 21388  99.5089 131.5425 0072561  37.3007  33.0379 13.50687762739443

Śledź DELTA 1 DEB w czasie rzeczywistym z AllMySat

Download on the App Store